User: anonymous
Location: Cherry Road
(34.5193°N, 112.0852°W)
Time: 20:04:32
(UTC-07:00)
Language:

HST - Orbit

View from above orbital plane
View from above orbital plane
View from above satellite
View from above satellite

Ground track
Ground track

The orbit data is extracted from the following two-line orbital elements,

1 20580U 90037B   14239.57114404  .00001867  00000-0  11436-3 0   877
2 20580 028.4699 287.8084 0002804 331.7213 028.3204 15.05650769135480
Epoch (UTC): 27 August 2014 13:42:26
Eccentricity: 0.0002804
inclination: 28.4699°
perigee height: 547 km
apogee height: 551 km
right ascension of ascending node: 287.8084°
argument of perigee: 331.7213°
revolutions per day: 15.05650769
mean anomaly at epoch: 28.3204°
orbit number at epoch: 13548

The dashed part of the orbit path shows where the satellite is in the earth's shadow,  

DLR